Total_Precipitation_Accumulation
1.79 1.72 1.62 1.40 1.25 1.12 1.01 1.04 1.17 1.10 1.04 0.95 0.79 0.69 0.67 0.65 0.60 0.57 0.58 0.63 0.70 0.94 1.20 1.35 1.37 1.43 1.47 1.42 1.35 1.26 1.14 1.07 1.04 1.01 1.01 1.01 1.04 0.99 0.97 0.94 0.91 0.89 0.90
1.95 1.91 1.78 1.55 1.36 1.22 1.09 1.02 1.09 1.18 1.15 1.11 1.02 0.89 0.82 0.75 0.67 0.62 0.56 0.59 0.65 0.76 1.01 1.20 1.32 1.48 1.68 1.72 1.62 1.48 1.30 1.17 1.12 1.09 1.10 1.11 1.10 1.07 1.09 1.04 1.00 1.00 1.00
2.07 2.09 1.95 1.68 1.51 1.45 1.32 1.24 1.25 1.27 1.21 1.09 1.01 1.00 0.95 0.85 0.76 0.70 0.63 0.59 0.60 0.66 0.84 1.09 1.23 1.41 1.62 1.79 1.84 1.77 1.55 1.32 1.21 1.17 1.16 1.19 1.24 1.21 1.25 1.29 1.17 1.10 1.11
2.22 2.27 2.14 1.87 1.82 1.86 1.71 1.52 1.45 1.38 1.25 1.15 1.06 1.05 1.01 0.96 0.81 0.74 0.70 0.65 0.62 0.64 0.79 1.03 1.17 1.27 1.43 1.61 1.79 1.90 1.83 1.64 1.47 1.33 1.25 1.24 1.25 1.33 1.35 1.39 1.38 1.29 1.30
2.27 2.27 2.24 2.11 2.10 2.11 2.03 1.83 1.71 1.65 1.46 1.32 1.24 1.22 1.21 1.17 1.07 0.92 0.81 0.81 0.77 0.76 0.90 1.12 1.21 1.21 1.23 1.37 1.58 1.77 1.84 1.75 1.59 1.44 1.36 1.33 1.29 1.35 1.44 1.41 1.39 1.39 1.37
2.27 2.24 2.19 2.25 2.30 2.27 2.22 2.14 1.96 1.87 1.77 1.65 1.56 1.44 1.43 1.40 1.27 1.08 0.95 0.92 0.91 0.91 1.02 1.09 1.12 1.20 1.21 1.14 1.26 1.53 1.75 1.81 1.69 1.55 1.45 1.38 1.37 1.39 1.52 1.53 1.49 1.50 1.47
2.56 2.44 2.24 2.27 2.38 2.27 2.16 2.25 2.29 2.25 2.14 1.99 1.92 1.75 1.64 1.53 1.41 1.18 1.01 0.97 0.98 1.01 1.04 1.08 1.10 1.01 0.91 0.88 0.98 1.17 1.48 1.74 1.82 1.74 1.57 1.45 1.43 1.50 1.61 1.75 1.72 1.68 1.69
2.64 2.63 2.57 2.46 2.53 2.49 2.38 2.31 2.35 2.42 2.32 2.26 2.22 2.14 1.95 1.82 1.53 1.27 1.12 1.03 1.01 1.05 1.07 1.06 1.02 0.99 0.87 0.80 0.82 0.95 1.21 1.56 1.79 1.88 1.76 1.64 1.56 1.62 1.76 1.98 2.06 1.95 1.92
2.74 2.64 2.65 2.64 2.62 2.65 2.55 2.45 2.38 2.39 2.40 2.32 2.26 2.39 2.13 1.79 1.54 1.38 1.19 1.10 1.07 1.08 1.11 1.12 1.07 1.01 0.95 0.87 0.83 0.90 1.00 1.23 1.61 1.97 2.12 2.04 1.94 1.89 1.94 2.11 2.32 2.28 2.15
2.72 2.71 2.65 2.63 2.66 2.63 2.57 2.60 2.60 2.46 2.46 2.45 2.36 2.19 1.98 1.72 1.63 1.52 1.36 1.27 1.18 1.12 1.13 1.16 1.12 1.05 1.01 0.97 0.96 1.00 1.05 1.11 1.40 1.85 2.27 2.44 2.35 2.26 2.31 2.43 2.62 2.69 2.46
2.66 2.58 2.59 2.56 2.55 2.57 2.57 2.60 2.64 2.66 2.57 2.47 2.38 2.28 2.15 1.89 1.70 1.66 1.54 1.45 1.45 1.31 1.22 1.19 1.18 1.16 1.11 1.07 1.03 1.09 1.19 1.21 1.39 1.69 2.09 2.45 2.62 2.65 2.68 2.71 2.80 2.91 2.79
2.75 2.57 2.50 2.45 2.43 2.46 2.47 2.52 2.60 2.68 2.63 2.48 2.35 2.19 2.13 2.01 1.83 1.79 1.64 1.47 1.51 1.44 1.36 1.29 1.24 1.24 1.27 1.28 1.27 1.38 1.32 1.38 1.51 1.68 2.00 2.36 2.61 2.72 2.86 2.98 3.03 3.02 2.99
2.84 2.61 2.51 2.48 2.42 2.35 2.41 2.57 2.66 2.66 2.65 2.54 2.45 2.33 2.19 2.01 1.91 1.95 1.92 1.71 1.59 1.47 1.44 1.41 1.36 1.32 1.35 1.42 1.47 1.60 1.47 1.48 1.55 1.69 1.99 2.32 2.47 2.60 2.69 2.79 2.99 3.04 3.03
2.84 2.72 2.63 2.57 2.53 2.47 2.42 2.46 2.51 2.54 2.56 2.51 2.40 2.32 2.23 2.08 2.04 2.04 2.05 2.14 2.05 1.75 1.59 1.50 1.39 1.40 1.49 1.54 1.67 1.77 1.54 1.63 1.56 1.57 1.76 1.99 2.06 2.13 2.29 2.52 2.77 2.93 2.98
2.56 2.68 2.67 2.60 2.49 2.45 2.43 2.43 2.38 2.31 2.36 2.38 2.32 2.22 2.12 1.97 1.98 2.00 1.99 2.10 2.31 2.15 1.71 1.42 1.36 1.36 1.41 1.46 1.65 1.58 1.47 1.67 1.63 1.54 1.56 1.61 1.63 1.65 1.70 1.88 2.13 2.35 2.50
2.11 2.28 2.46 2.51 2.45 2.38 2.34 2.35 2.31 2.20 2.20 2.13 2.08 2.09 2.04 1.91 1.82 1.85 1.94 1.99 2.08 2.18 1.90 1.35 1.20 1.25 1.35 1.39 1.56 1.43 1.38 1.63 1.57 1.50 1.45 1.44 1.44 1.43 1.45 1.53 1.66 1.84 1.99
1.85 1.94 2.07 2.22 2.26 2.25 2.24 2.24 2.16 2.09 2.07 2.03 1.97 1.93 1.87 1.82 1.84 1.80 1.81 1.89 1.98 2.05 2.00 1.49 1.25 1.26 1.40 1.45 1.48 1.38 1.32 1.36 1.38 1.53 1.44 1.37 1.33 1.30 1.32 1.37 1.44 1.54 1.63
1.66 1.66 1.73 1.82 1.91 1.94 1.94 1.97 1.96 1.91 1.89 1.87 1.83 1.83 1.79 1.76 1.75 1.74 1.78 1.81 1.84 1.89 1.93 1.71 1.40 1.31 1.34 1.34 1.34 1.34 1.29 1.25 1.23 1.46 1.44 1.40 1.34 1.29 1.26 1.26 1.32 1.38 1.44
1.64 1.54 1.51 1.58 1.62 1.66 1.69 1.69 1.69 1.71 1.69 1.66 1.68 1.70 1.69 1.76 1.80 1.74 1.71 1.68 1.65 1.65 1.72 1.73 1.50 1.29 1.25 1.25 1.30 1.30 1.26 1.22 1.15 1.25 1.36 1.43 1.43 1.39 1.36 1.31 1.32 1.33 1.33
1.51 1.54 1.43 1.36 1.41 1.47 1.54 1.60 1.61 1.60 1.61 1.62 1.62 1.63 1.63 1.66 1.67 1.67 1.71 1.69 1.64 1.65 1.65 1.69 1.61 1.46 1.37 1.32 1.38 1.41 1.40 1.29 1.24 1.17 1.28 1.34 1.47 1.48 1.39 1.27 1.18 1.20 1.25
1.33 1.42 1.42 1.35 1.28 1.33 1.42 1.50 1.56 1.59 1.58 1.61 1.61 1.60 1.62 1.72 1.77 1.73 1.70 1.69 1.75 1.86 1.86 1.87 1.75 1.56 1.43 1.38 1.36 1.27 1.33 1.33 1.33 1.30 1.27 1.23 1.21 1.21 1.25 1.26 1.21 1.18 1.25
1.22 1.33 1.39 1.42 1.39 1.39 1.64 1.65 1.57 1.58 1.60 1.59 1.57 1.52 1.51 1.59 1.59 1.65 1.67 1.65 1.76 1.92 2.04 2.02 1.82 1.53 1.28 1.18 1.15 1.22 1.36 1.47 1.45 1.18 1.14 1.22 1.19 1.22 1.18 1.19 1.33 1.27 1.24
1.26 1.35 1.43 1.49 1.50 1.56 1.72 1.64 1.63 1.51 1.50 1.51 1.48 1.44 1.40 1.36 1.41 1.29 1.40 1.48 1.51 1.65 1.74 1.68 1.59 1.31 1.16 1.14 1.31 1.45 1.41 1.39 1.24 1.08 1.18 1.32 1.26 1.27 1.18 1.22 1.36 1.27 1.26
1.45 1.51 1.57 1.59 1.60 1.63 1.69 1.61 1.63 1.44 1.37 1.34 1.28 1.21 1.18 1.14 1.16 1.23 1.29 1.37 1.28 1.24 1.26 1.24 1.22 1.15 1.13 1.20 1.42 1.65 1.68 1.66 1.41 1.21 1.21 1.37 1.22 1.19 1.17 1.21 1.32 1.27 1.29
1.56 1.52 1.50 1.50 1.48 1.47 1.50 1.46 1.46 1.30 1.24 1.18 1.11 1.06 1.06 1.02 1.18 1.36 1.36 1.38 1.19 1.07 1.14 1.25 1.34 1.37 1.48 1.54 1.61 1.89 2.06 2.15 1.91 1.43 1.19 1.25 1.15 1.11 1.17 1.21 1.23 1.28 1.27
1.34 1.27 1.23 1.19 1.16 1.14 1.21 1.23 1.26 1.21 1.17 1.05 0.99 0.98 1.09 1.08 1.24 1.39 1.33 1.33 1.27 1.06 1.04 1.12 1.18 1.24 1.24 1.34 1.53 1.57 1.78 2.11 1.95 1.59 1.12 1.18 1.21 1.31 1.60 1.29 1.14 1.13 1.16